Location: Saint-Usage
(47.1052°N, 5.2587°E)
Time: 00:26:22
(UTC+02:00)

ISS - Pass Details

Date: 24 September 2021
Orbit: 417 x 423 km, 51.6° (Epoch: 24 October)

Event Time Altitude Azimuth Distance (km) Brightness Sun altitude
Rises 22:30:32 0° 292° (WNW) 2,368 1.2 -29.4°
Reaches altitude 10° 22:32:41 10° 299° (WNW) 1,504 0.0 -29.7°
Enters shadow 22:33:27 16° 303° (WNW) 1,207 -0.7 -29.8°
